• In Hungary
  • List of Countries
  • For 7 days
  • Water Temperature
  • Satellite Maps
  • Weather Map
  • News
  • Weather Widgets
  • user-avatar
    Login

    Hourly Weather Vladimirec

    Today, 24 September, Monday

    Time Temperature Precipitation Wind Pressure Humidity
    00:00 +11°C° 2.3 mm 4 mps 739 mmHg 78%
    01:00 +11°C° 2.3 mm 4 mps 738 mmHg 79%
    02:00 +11°C° 0 mm 3 mps 736 mmHg 84%
    03:00 +11°C° 2.6 mm 4 mps 735 mmHg 85%
    04:00 +10°C° 2.6 mm 5 mps 734 mmHg 86%
    05:00 +10°C° 2.6 mm 6 mps 733 mmHg 86%
    06:00 +11°C° 0.3 mm 7 mps 733 mmHg 85%
    07:00 +12°C° 0.3 mm 8 mps 733 mmHg 85%
    08:00 +12°C° 0 mm 10 mps 732 mmHg 83%
    09:00 +11°C° 0.1 mm 10 mps 734 mmHg 82%
    10:00 +9°C° 0.1 mm 10 mps 735 mmHg 81%
    11:00 +8°C° 0.1 mm 9 mps 736 mmHg 79%
    12:00 +8°C° 0.1 mm 9 mps 738 mmHg 76%
    13:00 +10°C° 0.1 mm 8 mps 739 mmHg 73%
    14:00 +10°C° 0.1 mm 8 mps 740 mmHg 70%
    15:00 +10°C° 0.3 mm 7 mps 740 mmHg 70%
    16:00 +10°C° 0.3 mm 7 mps 741 mmHg 71%
    17:00 +10°C° 0.3 mm 7 mps 741 mmHg 72%
    18:00 +9°C° 0.2 mm 7 mps 741 mmHg 74%
    19:00 +8°C° 0.2 mm 7 mps 742 mmHg 77%
    20:00 +8°C° 0.2 mm 6 mps 742 mmHg 79%
    21:00 +7°C° 0 mm 6 mps 743 mmHg 80%
    22:00 +7°C° 0 mm 6 mps 743 mmHg 81%
    23:00 +7°C° 0 mm 6 mps 743 mmHg 83%

    Tomorrow, 25 September, Tuesday

    Time Temperature Precipitation Wind Pressure Humidity
    00:00 +5°C° 0 mm 6 mps 744 mmHg 84%
    01:00 +5°C° 0 mm 6 mps 744 mmHg 84%
    02:00 +5°C° 0 mm 6 mps 745 mmHg 85%
    03:00 +4°C° 0.2 mm 6 mps 745 mmHg 86%
    04:00 +4°C° 0.2 mm 6 mps 746 mmHg 86%
    05:00 +4°C° 0.2 mm 6 mps 746 mmHg 86%
    06:00 +4°C° 0 mm 6 mps 747 mmHg 84%
    07:00 +4°C° 0 mm 6 mps 748 mmHg 83%
    08:00 +4°C° 0 mm 6 mps 748 mmHg 81%
    09:00 +6°C° 0 mm 7 mps 749 mmHg 73%
    10:00 +8°C° 0 mm 7 mps 750 mmHg 65%
    11:00 +9°C° 0 mm 7 mps 750 mmHg 57%
    12:00 +9°C° 0.2 mm 7 mps 751 mmHg 56%
    13:00 +10°C° 0.2 mm 7 mps 751 mmHg 55%
    14:00 +10°C° 0.2 mm 7 mps 751 mmHg 54%
    15:00 +9°C° 0.1 mm 7 mps 752 mmHg 57%
    16:00 +9°C° 0.1 mm 6 mps 752 mmHg 59%
    17:00 +9°C° 0.1 mm 5 mps 752 mmHg 61%
    18:00 +8°C° 0 mm 5 mps 753 mmHg 65%
    19:00 +7°C° 0 mm 4 mps 754 mmHg 69%
    20:00 +6°C° 0 mm 4 mps 754 mmHg 73%
    21:00 +6°C° 0 mm 4 mps 755 mmHg 74%
    22:00 +5°C° 0 mm 4 mps 755 mmHg 76%
    23:00 +5°C° 0 mm 4 mps 756 mmHg 78%

    Day after tomorrow, 26 September, Wednesday

    Time Temperature Precipitation Wind Pressure Humidity
    00:00 +4°C° 0 mm 4 mps 756 mmHg 80%
    01:00 +4°C° 0 mm 4 mps 757 mmHg 83%
    02:00 +3°C° 0 mm 3 mps 757 mmHg 85%
    03:00 +3°C° 0 mm 3 mps 758 mmHg 87%
    04:00 +2°C° 0 mm 3 mps 758 mmHg 89%
    05:00 +2°C° 0 mm 3 mps 758 mmHg 91%
    06:00 +3°C° 0 mm 3 mps 759 mmHg 87%
    07:00 +3°C° 0 mm 3 mps 759 mmHg 82%
    08:00 +4°C° 0 mm 3 mps 759 mmHg 78%
    09:00 +7°C° 0 mm 3 mps 759 mmHg 68%
    10:00 +9°C° 0 mm 3 mps 759 mmHg 59%
    11:00 +11°C° 0 mm 4 mps 759 mmHg 49%
    12:00 +11°C° 0 mm 4 mps 759 mmHg 47%
    13:00 +12°C° 0 mm 4 mps 758 mmHg 45%
    14:00 +13°C° 0 mm 5 mps 758 mmHg 43%
    15:00 +12°C° 0 mm 4 mps 757 mmHg 47%
    16:00 +12°C° 0 mm 4 mps 757 mmHg 51%
    17:00 +11°C° 0 mm 3 mps 756 mmHg 55%
    18:00 +11°C° 0 mm 4 mps 756 mmHg 56%
    19:00 +10°C° 0 mm 4 mps 756 mmHg 58%
    20:00 +10°C° 0 mm 4 mps 756 mmHg 59%
    21:00 +9°C° 0 mm 5 mps 755 mmHg 59%
    22:00 +9°C° 0 mm 5 mps 755 mmHg 59%
    23:00 +8°C° 0 mm 5 mps 754 mmHg 58%

    27 September, Thursday

    Time Temperature Precipitation Wind Pressure Humidity
    00:00 +8°C° 0.1 mm 5 mps 754 mmHg 59%
    01:00 +8°C° 0.1 mm 5 mps 753 mmHg 61%
    02:00 +8°C° 0.1 mm 6 mps 753 mmHg 62%
    03:00 +8°C° 0.1 mm 6 mps 752 mmHg 62%
    04:00 +9°C° 0.1 mm 6 mps 752 mmHg 63%
    05:00 +9°C° 0.1 mm 6 mps 751 mmHg 64%
    06:00 +9°C° 0 mm 6 mps 751 mmHg 62%
    07:00 +10°C° 0 mm 6 mps 751 mmHg 61%
    08:00 +10°C° 0 mm 7 mps 750 mmHg 59%
    09:00 +11°C° 0 mm 7 mps 750 mmHg 58%
    10:00 +14°C° 0 mm 7 mps 750 mmHg 57%
    11:00 +15°C° 0 mm 7 mps 750 mmHg 57%
    12:00 +16°C° 0 mm 7 mps 750 mmHg 57%
    13:00 +17°C° 0 mm 7 mps 750 mmHg 57%
    14:00 +18°C° 0 mm 7 mps 750 mmHg 57%
    15:00 +18°C° 0 mm 7 mps 749 mmHg 60%
    16:00 +17°C° 0 mm 6 mps 749 mmHg 63%
    17:00 +17°C° 0 mm 5 mps 749 mmHg 66%
    18:00 +16°C° 0 mm 5 mps 749 mmHg 69%
    19:00 +15°C° 0 mm 5 mps 749 mmHg 72%
    20:00 +15°C° 0 mm 4 mps 750 mmHg 75%
    21:00 +14°C° 0 mm 4 mps 750 mmHg 78%
    22:00 +14°C° 0 mm 4 mps 750 mmHg 80%
    23:00 +13°C° 0 mm 4 mps 749 mmHg 83%

    28 September, Friday

    Time Temperature Precipitation Wind Pressure Humidity
    00:00 +13°C° 0 mm 4 mps 749 mmHg 85%
    01:00 +12°C° 0 mm 4 mps 749 mmHg 88%
    02:00 +12°C° 0 mm 4 mps 749 mmHg 90%
    03:00 +11°C° 0 mm 4 mps 749 mmHg 91%
    04:00 +11°C° 0 mm 4 mps 748 mmHg 92%
    05:00 +11°C° 0 mm 4 mps 748 mmHg 93%
    06:00 +12°C° 0 mm 4 mps 748 mmHg 89%
    07:00 +13°C° 0 mm 5 mps 748 mmHg 86%
    08:00 +14°C° 0 mm 6 mps 747 mmHg 82%
    09:00 +15°C° 0 mm 6 mps 747 mmHg 76%
    10:00 +17°C° 0 mm 6 mps 747 mmHg 70%
    11:00 +20°C° 0 mm 6 mps 747 mmHg 64%
    12:00 +20°C° 0 mm 6 mps 747 mmHg 63%
    13:00 +20°C° 0 mm 6 mps 746 mmHg 63%
    14:00 +21°C° 0 mm 6 mps 746 mmHg 62%
    15:00 +20°C° 0.1 mm 5 mps 746 mmHg 67%
    16:00 +19°C° 0.1 mm 4 mps 746 mmHg 71%
    17:00 +18°C° 0.1 mm 3 mps 746 mmHg 75%
    18:00 +17°C° 0 mm 3 mps 746 mmHg 79%
    19:00 +16°C° 0 mm 3 mps 746 mmHg 82%
    20:00 +15°C° 0 mm 2 mps 746 mmHg 85%
    21:00 +14°C° 0 mm 2 mps 746 mmHg 86%
    22:00 +13°C° 0 mm 2 mps 746 mmHg 87%
    23:00 +12°C° 0 mm 2 mps 747 mmHg 88%

    29 September, Saturday

    Time Temperature Precipitation Wind Pressure Humidity
    00:00 +12°C° 0 mm 2 mps 747 mmHg 86%
    01:00 +10°C° 0 mm 2 mps 747 mmHg 83%
    02:00 +10°C° 0 mm 2 mps 747 mmHg 81%
    03:00 +9°C° 0 mm 2 mps 747 mmHg 80%
    04:00 +9°C° 0 mm 3 mps 747 mmHg 79%
    05:00 +9°C° 0 mm 3 mps 747 mmHg 78%
    06:00 +8°C° 0.3 mm 3 mps 748 mmHg 79%
    07:00 +8°C° 0.3 mm 3 mps 748 mmHg 79%
    08:00 +6°C° 0.3 mm 4 mps 749 mmHg 80%
    09:00 +8°C° 0.3 mm 3 mps 749 mmHg 76%
    10:00 +8°C° 0.3 mm 3 mps 750 mmHg 73%
    11:00 +9°C° 0.3 mm 3 mps 750 mmHg 69%
    12:00 +10°C° 0 mm 4 mps 751 mmHg 62%
    13:00 +11°C° 0 mm 4 mps 751 mmHg 55%
    14:00 +12°C° 0 mm 5 mps 751 mmHg 48%
    15:00 +11°C° 0 mm 4 mps 751 mmHg 49%
    16:00 +11°C° 0 mm 4 mps 751 mmHg 50%
    17:00 +10°C° 0 mm 3 mps 751 mmHg 51%
    18:00 +9°C° 0 mm 3 mps 752 mmHg 55%
    19:00 +7°C° 0 mm 3 mps 752 mmHg 59%
    20:00 +6°C° 0 mm 2 mps 753 mmHg 63%
    21:00 +5°C° 0 mm 2 mps 753 mmHg 64%
    22:00 +5°C° 0 mm 2 mps 754 mmHg 65%
    23:00 +4°C° 0 mm 2 mps 754 mmHg 67%
    Show more